owner,sensor,date,latitude,longitude,vertical_datum,direction_of_sea_water_velocity,sea_water_speed,upward_sea_water_velocity,qcFlag 
TABS,ioos:station:wmo:42043:1,2003-11-01T00:00:00Z,28.9818,-94.9186,2.0,276.5161061,31.72491765,-99999.0,'11111222,11111222,99999999' 
TABS,ioos:station:wmo:42043:1,2003-11-01T00:30:00Z,28.9818,-94.9186,2.0,278.8599348,32.65966626,-99999.0,'11111222,11111222,99999999' 
TABS,ioos:station:wmo:42043:1,2003-11-01T01:00:00Z,28.9818,-94.9186,2.0,284.0408937,32.60406416,-99999.0,'11111222,11111222,99999999' 
TABS,ioos:station:wmo:42043:1,2003-11-01T01:30:00Z,28.9818,-94.9186,2.0,279.5584796,32.46062538,-99999.0,'11111222,11111222,99999999' 
TABS,ioos:station:wmo:42043:1,2003-11-01T02:00:00Z,28.9818,-94.9186,2.0,273.6222982,36.09208778,-99999.0,'11111222,11111222,99999999' 
TABS,ioos:station:wmo:42043:1,2003-11-01T02:30:00Z,28.9818,-94.9186,2.0,275.4119424,35.83973772,-99999.0,'11111222,11111222,99999999' 
TABS,ioos:station:wmo:42043:1,2003-11-01T03:00:00Z,28.9818,-94.9186,2.0,277.2081513,38.65546533,-99999.0,'11111222,11111222,99999999' 
TABS,ioos:station:wmo:42043:1,2003-11-01T03:30:00Z,28.9818,-94.9186,2.0,276.6991351,39.17745525,-99999.0,'11111222,11111222,99999999' 
TABS,ioos:station:wmo:42043:1,2003-11-01T04:00:00Z,28.9818,-94.9186,2.0,272.7778443,38.38509086,-99999.0,'11111222,11111222,99999999' 
TABS,ioos:station:wmo:42043:1,2003-11-01T04:30:00Z,28.9818,-94.9186,2.0,270.3944249,34.90082521,-99999.0,'11111222,11111222,99999999' 
TABS,ioos:station:wmo:42043:1,2003-11-01T05:00:00Z,28.9818,-94.9186,2.0,269.6458028,34.01064833,-99999.0,'11111222,11111222,99999999' 
TABS,ioos:station:wmo:42043:1,2003-11-01T05:30:00Z,28.9818,-94.9186,2.0,266.1476759,30.21826269,-99999.0,'11111222,11111222,99999999' 
TABS,ioos:station:wmo:42043:1,2003-11-01T06:00:00Z,28.9818,-94.9186,2.0,263.4235258,33.5306084,-99999.0,'11111222,11111222,99999999' 
TABS,ioos:station:wmo:42043:1,2003-11-01T06:30:00Z,28.9818,-94.9186,2.0,262.4415549,34.13657423,-99999.0,'11111222,11111222,99999999' 
TABS,ioos:station:wmo:42043:1,2003-11-01T07:00:00Z,28.9818,-94.9186,2.0,262.9628437,35.42684293,-99999.0,'11111222,11111222,99999999' 
TABS,ioos:station:wmo:42043:1,2003-11-01T07:30:00Z,28.9818,-94.9186,2.0,259.8936505,36.58765912,-99999.0,'11111222,11111222,99999999' 
TABS,ioos:station:wmo:42043:1,2003-11-01T08:00:00Z,28.9818,-94.9186,2.0,262.1348764,36.02889118,-99999.0,'11111222,11111222,99999999' 
TABS,ioos:station:wmo:42043:1,2003-11-01T08:30:00Z,28.9818,-94.9186,2.0,259.5260707,33.7218401,-99999.0,'11111222,11111222,99999999' 
TABS,ioos:station:wmo:42043:1,2003-11-01T09:00:00Z,28.9818,-94.9186,2.0,257.1705172,35.80377913,-99999.0,'11111222,11111222,99999999' 
TABS,ioos:station:wmo:42043:1,2003-11-01T09:30:00Z,28.9818,-94.9186,2.0,256.6773091,32.89523522,-99999.0,'11111222,11111222,99999999' 
TABS,ioos:station:wmo:42043:1,2003-11-01T10:00:00Z,28.9818,-94.9186,2.0,252.4782421,34.31191193,-99999.0,'11111222,11111222,99999999' 
TABS,ioos:station:wmo:42043:1,2003-11-01T10:30:00Z,28.9818,-94.9186,2.0,257.7383993,34.13871849,-99999.0,'11111222,11111222,99999999' 
TABS,ioos:station:wmo:42043:1,2003-11-01T11:00:00Z,28.9818,-94.9186,2.0,249.2639479,34.34472303,-99999.0,'11111222,11111222,99999999' 
TABS,ioos:station:wmo:42043:1,2003-11-01T11:30:00Z,28.9818,-94.9186,2.0,250.3859589,35.51040552,-99999.0,'11111222,11111222,99999999' 
TABS,ioos:station:wmo:42043:1,2003-11-01T12:00:00Z,28.9818,-94.9186,2.0,247.6439836,34.36267306,-99999.0,'11111222,11111222,99999999' 
TABS,ioos:station:wmo:42043:1,2003-11-01T12:30:00Z,28.9818,-94.9186,2.0,254.2419409,34.79773843,-99999.0,'11111222,11111222,99999999' 
TABS,ioos:station:wmo:42043:1,2003-11-01T13:00:00Z,28.9818,-94.9186,2.0,246.5290646,32.64052083,-99999.0,'11111222,11111222,99999999' 
TABS,ioos:station:wmo:42043:1,2003-11-01T13:30:00Z,28.9818,-94.9186,2.0,247.6498051,30.84726568,-99999.0,'11111222,11111222,99999999' 
TABS,ioos:station:wmo:42043:1,2003-11-01T14:00:00Z,28.9818,-94.9186,2.0,250.4202174,30.55686011,-99999.0,'11111222,11111222,99999999' 
TABS,ioos:station:wmo:42043:1,2003-11-01T14:30:00Z,28.9818,-94.9186,2.0,250.9602378,31.17546792,-99999.0,'11111222,11111222,99999999' 
TABS,ioos:station:wmo:42043:1,2003-11-01T15:00:00Z,28.9818,-94.9186,2.0,250.248976,32.64014859,-99999.0,'11111222,11111222,99999999' 
TABS,ioos:station:wmo:42043:1,2003-11-01T15:30:00Z,28.9818,-94.9186,2.0,246.483601,35.31278097,-99999.0,'11111222,11111222,99999999' 
TABS,ioos:station:wmo:42043:1,2003-11-01T16:00:00Z,28.9818,-94.9186,2.0,241.8438443,36.40827378,-99999.0,'11111222,11111222,99999999' 
TABS,ioos:station:wmo:42043:1,2003-11-01T16:30:00Z,28.9818,-94.9186,2.0,237.6192859,38.22328217,-99999.0,'11111222,11111222,99999999' 
TABS,ioos:station:wmo:42043:1,2003-11-01T17:00:00Z,28.9818,-94.9186,2.0,241.0190398,42.86773729,-99999.0,'11111222,11111222,99999999' 
TABS,ioos:station:wmo:42043:1,2003-11-01T17:30:00Z,28.9818,-94.9186,2.0,238.9021733,47.0284701,-99999.0,'11111222,11111222,99999999' 
TABS,ioos:station:wmo:42043:1,2003-11-01T18:00:00Z,28.9818,-94.9186,2.0,234.2839822,50.14017351,-99999.0,'11111222,11111222,99999999' 
TABS,ioos:station:wmo:42043:1,2003-11-01T18:30:00Z,28.9818,-94.9186,2.0,237.7536893,57.55733229,-99999.0,'11111222,11111222,99999999' 
TABS,ioos:station:wmo:42043:1,2003-11-01T19:00:00Z,28.9818,-94.9186,2.0,233.9195072,67.03836812,-99999.0,'11111222,11111222,99999999' 
TABS,ioos:station:wmo:42043:1,2003-11-01T19:30:00Z,28.9818,-94.9186,2.0,247.2814251,71.2585665,-99999.0,'11111222,11111222,99999999' 
TABS,ioos:station:wmo:42043:1,2003-11-01T20:00:00Z,28.9818,-94.9186,2.0,246.6841044,70.76906245,-99999.0,'11111222,11111222,99999999' 
TABS,ioos:station:wmo:42043:1,2003-11-01T20:30:00Z,28.9818,-94.9186,2.0,247.3038005,70.78083144,-99999.0,'11111222,11111222,99999999' 
TABS,ioos:station:wmo:42043:1,2003-11-01T21:00:00Z,28.9818,-94.9186,2.0,249.3103075,69.94046754,-99999.0,'11111222,11111222,99999999' 
TABS,ioos:station:wmo:42043:1,2003-11-01T21:30:00Z,28.9818,-94.9186,2.0,251.4676466,69.09270367,-99999.0,'11111222,11111222,99999999' 
TABS,ioos:station:wmo:42043:1,2003-11-01T22:00:00Z,28.9818,-94.9186,2.0,254.2122525,70.71760813,-99999.0,'11111222,11111222,99999999' 
TABS,ioos:station:wmo:42043:1,2003-11-01T22:30:00Z,28.9818,-94.9186,2.0,252.5085168,65.07901736,-99999.0,'11111222,11111222,99999999' 
TABS,ioos:station:wmo:42043:1,2003-11-01T23:00:00Z,28.9818,-94.9186,2.0,257.0772165,66.00156438,-99999.0,'11111222,11111222,99999999' 
TABS,ioos:station:wmo:42043:1,2003-11-01T23:30:00Z,28.9818,-94.9186,2.0,258.6776653,65.50475174,-99999.0,'11111222,11111222,99999999' 
TABS,ioos:station:wmo:42043:1,2003-11-02T00:00:00Z,28.9818,-94.9186,2.0,262.506773,59.12485518,-99999.0,'11111222,11111222,99999999' 
TABS,ioos:station:wmo:42043:1,2003-11-02T00:30:00Z,28.9818,-94.9186,2.0,266.9659895,59.33314504,-99999.0,'11111222,11111222,99999999' 
TABS,ioos:station:wmo:42043:1,2003-11-02T01:00:00Z,28.9818,-94.9186,2.0,268.6659531,56.715363,-99999.0,'11111222,11111222,99999999' 
TABS,ioos:station:wmo:42043:1,2003-11-02T01:30:00Z,28.9818,-94.9186,2.0,269.1538722,55.55605188,-99999.0,'11111222,11111222,99999999' 
TABS,ioos:station:wmo:42043:1,2003-11-02T02:00:00Z,28.9818,-94.9186,2.0,274.0177094,51.38625886,-99999.0,'11111222,11111222,99999999' 
TABS,ioos:station:wmo:42043:1,2003-11-02T02:30:00Z,28.9818,-94.9186,2.0,276.589139,48.36946351,-99999.0,'11111222,11111222,99999999' 
TABS,ioos:station:wmo:42043:1,2003-11-02T03:00:00Z,28.9818,-94.9186,2.0,273.8056542,47.46464052,-99999.0,'11111222,11111222,99999999' 
TABS,ioos:station:wmo:42043:1,2003-11-02T03:30:00Z,28.9818,-94.9186,2.0,273.2880728,45.68518907,-99999.0,'11111222,11111222,99999999' 
TABS,ioos:station:wmo:42043:1,2003-11-02T04:00:00Z,28.9818,-94.9186,2.0,272.9557259,40.34365502,-99999.0,'11111222,11111222,99999999' 
TABS,ioos:station:wmo:42043:1,2003-11-02T04:30:00Z,28.9818,-94.9186,2.0,269.1243184,37.31435381,-99999.0,'11111222,11111222,99999999' 
TABS,ioos:station:wmo:42043:1,2003-11-02T05:00:00Z,28.9818,-94.9186,2.0,265.8498974,37.58854214,-99999.0,'11111222,11111222,99999999' 
TABS,ioos:station:wmo:42043:1,2003-11-02T05:30:00Z,28.9818,-94.9186,2.0,256.4414697,37.49488765,-99999.0,'11111222,11111222,99999999' 
TABS,ioos:station:wmo:42043:1,2003-11-02T06:00:00Z,28.9818,-94.9186,2.0,257.0924794,41.72422917,-99999.0,'11111222,11111222,99999999' 
TABS,ioos:station:wmo:42043:1,2003-11-02T06:30:00Z,28.9818,-94.9186,2.0,247.5596013,33.82093582,-99999.0,'11111222,11111222,99999999' 
TABS,ioos:station:wmo:42043:1,2003-11-02T07:00:00Z,28.9818,-94.9186,2.0,241.9443668,35.25235453,-99999.0,'11111222,11111222,99999999' 
TABS,ioos:station:wmo:42043:1,2003-11-02T07:30:00Z,28.9818,-94.9186,2.0,241.8109557,33.93477567,-99999.0,'11111222,11111222,99999999' 
TABS,ioos:station:wmo:42043:1,2003-11-02T08:00:00Z,28.9818,-94.9186,2.0,239.09266,39.81341608,-99999.0,'11111222,11111222,99999999' 
TABS,ioos:station:wmo:42043:1,2003-11-02T08:30:00Z,28.9818,-94.9186,2.0,243.6699581,38.10291984,-99999.0,'11111222,11111222,99999999' 
TABS,ioos:station:wmo:42043:1,2003-11-02T09:00:00Z,28.9818,-94.9186,2.0,234.2376551,48.09899167,-99999.0,'11111222,11111222,99999999' 
TABS,ioos:station:wmo:42043:1,2003-11-02T09:30:00Z,28.9818,-94.9186,2.0,254.5052487,45.36885275,-99999.0,'11111222,11111222,99999999' 
TABS,ioos:station:wmo:42043:1,2003-11-02T10:00:00Z,28.9818,-94.9186,2.0,274.1195211,64.59686138,-99999.0,'11111222,11111222,99999999' 
TABS,ioos:station:wmo:42043:1,2003-11-02T10:30:00Z,28.9818,-94.9186,2.0,272.4895214,55.72257442,-99999.0,'11111222,11111222,99999999' 
TABS,ioos:station:wmo:42043:1,2003-11-02T11:00:00Z,28.9818,-94.9186,2.0,271.0800144,48.82866781,-99999.0,'11111222,11111222,99999999' 
TABS,ioos:station:wmo:42043:1,2003-11-02T11:30:00Z,28.9818,-94.9186,2.0,269.4592009,41.35183914,-99999.0,'11111222,11111222,99999999' 
TABS,ioos:station:wmo:42043:1,2003-11-02T12:00:00Z,28.9818,-94.9186,2.0,264.4960893,38.26639518,-99999.0,'11111222,11111222,99999999' 
TABS,ioos:station:wmo:42043:1,2003-11-02T12:30:00Z,28.9818,-94.9186,2.0,269.8565905,40.07012478,-99999.0,'11111222,11111222,99999999' 
TABS,ioos:station:wmo:42043:1,2003-11-02T13:00:00Z,28.9818,-94.9186,2.0,264.5446949,41.02579189,-99999.0,'11111222,11111222,99999999' 
TABS,ioos:station:wmo:42043:1,2003-11-02T13:30:00Z,28.9818,-94.9186,2.0,255.5867656,38.00615345,-99999.0,'11111222,11111222,99999999' 
TABS,ioos:station:wmo:42043:1,2003-11-02T14:00:00Z,28.9818,-94.9186,2.0,253.5956503,38.10091994,-99999.0,'11111222,11111222,99999999' 
TABS,ioos:station:wmo:42043:1,2003-11-02T14:30:00Z,28.9818,-94.9186,2.0,259.2189131,29.72462952,-99999.0,'11111222,11111222,99999999' 
TABS,ioos:station:wmo:42043:1,2003-11-02T15:00:00Z,28.9818,-94.9186,2.0,265.6779743,25.08131177,-99999.0,'11111222,11111222,99999999' 
TABS,ioos:station:wmo:42043:1,2003-11-02T15:30:00Z,28.9818,-94.9186,2.0,273.1649042,33.15054902,-99999.0,'11111222,11111222,99999999' 
TABS,ioos:station:wmo:42043:1,2003-11-02T16:00:00Z,28.9818,-94.9186,2.0,266.9105782,36.74338716,-99999.0,'11111222,11111222,99999999' 
TABS,ioos:station:wmo:42043:1,2003-11-02T16:30:00Z,28.9818,-94.9186,2.0,262.864315,34.61809498,-99999.0,'11111222,11111222,99999999' 
TABS,ioos:station:wmo:42043:1,2003-11-02T17:00:00Z,28.9818,-94.9186,2.0,258.8577344,33.43010021,-99999.0,'11111222,11111222,99999999' 
TABS,ioos:station:wmo:42043:1,2003-11-02T17:30:00Z,28.9818,-94.9186,2.0,260.3441878,32.19608051,-99999.0,'11111222,11111222,99999999' 
TABS,ioos:station:wmo:42043:1,2003-11-02T18:00:00Z,28.9818,-94.9186,2.0,262.4791081,32.16669396,-99999.0,'11111222,11111222,99999999' 
TABS,ioos:station:wmo:42043:1,2003-11-02T18:30:00Z,28.9818,-94.9186,2.0,261.0027409,33.18831873,-99999.0,'11111222,11111222,99999999' 
TABS,ioos:station:wmo:42043:1,2003-11-02T19:00:00Z,28.9818,-94.9186,2.0,264.7975023,33.85946397,-99999.0,'11111222,11111222,99999999' 
TABS,ioos:station:wmo:42043:1,2003-11-02T19:30:00Z,28.9818,-94.9186,2.0,263.281007,30.60013889,-99999.0,'11111222,11111222,99999999' 
TABS,ioos:station:wmo:42043:1,2003-11-02T20:00:00Z,28.9818,-94.9186,2.0,262.4531554,29.84852593,-99999.0,'11111222,11111222,99999999' 
TABS,ioos:station:wmo:42043:1,2003-11-02T20:30:00Z,28.9818,-94.9186,2.0,264.4229774,31.48903301,-99999.0,'11111222,11111222,99999999' 
TABS,ioos:station:wmo:42043:1,2003-11-02T21:00:00Z,28.9818,-94.9186,2.0,267.7774026,28.11114014,-99999.0,'11111222,11111222,99999999' 
TABS,ioos:station:wmo:42043:1,2003-11-02T21:30:00Z,28.9818,-94.9186,2.0,267.7870295,28.75143475,-99999.0,'11111222,11111222,99999999' 
TABS,ioos:station:wmo:42043:1,2003-11-02T22:00:00Z,28.9818,-94.9186,2.0,267.1342213,29.00626484,-99999.0,'11111222,11111222,99999999' 
TABS,ioos:station:wmo:42043:1,2003-11-02T22:30:00Z,28.9818,-94.9186,2.0,267.5082585,28.06652811,-99999.0,'11111222,11111222,99999999' 
TABS,ioos:station:wmo:42043:1,2003-11-02T23:00:00Z,28.9818,-94.9186,2.0,274.5218045,24.35579602,-99999.0,'11111222,11111222,99999999' 
TABS,ioos:station:wmo:42043:1,2003-11-02T23:30:00Z,28.9818,-94.9186,2.0,271.0564423,23.87405496,-99999.0,'11111222,11111222,99999999' 
TABS,ioos:station:wmo:42043:1,2003-11-03T00:00:00Z,28.9818,-94.9186,2.0,271.8480269,20.47064239,-99999.0,'11111222,11111222,99999999' 
TABS,ioos:station:wmo:42043:1,2003-11-03T00:30:00Z,28.9818,-94.9186,2.0,278.5816973,22.98733999,-99999.0,'11111222,11111222,99999999' 
TABS,ioos:station:wmo:42043:1,2003-11-03T01:00:00Z,28.9818,-94.9186,2.0,281.9807125,20.28175781,-99999.0,'11111222,11111222,99999999' 
TABS,ioos:station:wmo:42043:1,2003-11-03T01:30:00Z,28.9818,-94.9186,2.0,286.5120109,19.59818869,-99999.0,'11111222,11111222,99999999' 
TABS,ioos:station:wmo:42043:1,2003-11-03T02:00:00Z,28.9818,-94.9186,2.0,289.6448775,20.67325325,-99999.0,'11111222,11111222,99999999' 
TABS,ioos:station:wmo:42043:1,2003-11-03T02:30:00Z,28.9818,-94.9186,2.0,280.1532506,17.86982373,-99999.0,'11111222,11111222,99999999' 
TABS,ioos:station:wmo:42043:1,2003-11-03T03:00:00Z,28.9818,-94.9186,2.0,273.0886981,18.74722646,-99999.0,'11111222,11111222,99999999' 
TABS,ioos:station:wmo:42043:1,2003-11-03T03:30:00Z,28.9818,-94.9186,2.0,277.8674538,22.79453443,-99999.0,'11111222,11111222,99999999' 
TABS,ioos:station:wmo:42043:1,2003-11-03T04:00:00Z,28.9818,-94.9186,2.0,277.311424,22.16016245,-99999.0,'11111222,11111222,99999999' 
TABS,ioos:station:wmo:42043:1,2003-11-03T04:30:00Z,28.9818,-94.9186,2.0,276.9701303,21.50894233,-99999.0,'11111222,11111222,99999999' 
TABS,ioos:station:wmo:42043:1,2003-11-03T05:00:00Z,28.9818,-94.9186,2.0,272.3198588,22.23821935,-99999.0,'11111222,11111222,99999999' 
TABS,ioos:station:wmo:42043:1,2003-11-03T05:30:00Z,28.9818,-94.9186,2.0,268.2272835,21.34020853,-99999.0,'11111222,11111222,99999999' 
TABS,ioos:station:wmo:42043:1,2003-11-03T06:00:00Z,28.9818,-94.9186,2.0,264.9125623,22.21751111,-99999.0,'11111222,11111222,99999999' 
TABS,ioos:station:wmo:42043:1,2003-11-03T06:30:00Z,28.9818,-94.9186,2.0,260.3402931,20.56150286,-99999.0,'11111222,11111222,99999999' 
TABS,ioos:station:wmo:42043:1,2003-11-03T07:00:00Z,28.9818,-94.9186,2.0,260.8180107,21.80943145,-99999.0,'11111222,11111222,99999999' 
TABS,ioos:station:wmo:42043:1,2003-11-03T07:30:00Z,28.9818,-94.9186,2.0,260.3730241,22.36493014,-99999.0,'11111222,11111222,99999999' 
TABS,ioos:station:wmo:42043:1,2003-11-03T08:00:00Z,28.9818,-94.9186,2.0,260.4475554,19.94655359,-99999.0,'11111222,11111222,99999999' 
TABS,ioos:station:wmo:42043:1,2003-11-03T08:30:00Z,28.9818,-94.9186,2.0,260.7473142,17.04171353,-99999.0,'11111222,11111222,99999999' 
TABS,ioos:station:wmo:42043:1,2003-11-03T09:00:00Z,28.9818,-94.9186,2.0,260.2408442,18.11207884,-99999.0,'11111222,11111222,99999999' 
TABS,ioos:station:wmo:42043:1,2003-11-03T09:30:00Z,28.9818,-94.9186,2.0,262.7009568,18.41924266,-99999.0,'11111222,11111222,99999999' 
TABS,ioos:station:wmo:42043:1,2003-11-03T10:00:00Z,28.9818,-94.9186,2.0,260.522221,18.76614505,-99999.0,'11111222,11111222,99999999' 
TABS,ioos:station:wmo:42043:1,2003-11-03T10:30:00Z,28.9818,-94.9186,2.0,265.616875,16.48821397,-99999.0,'11111222,11111222,99999999' 
TABS,ioos:station:wmo:42043:1,2003-11-03T11:00:00Z,28.9818,-94.9186,2.0,257.3164857,15.30341465,-99999.0,'11111222,11111222,99999999' 
TABS,ioos:station:wmo:42043:1,2003-11-03T11:30:00Z,28.9818,-94.9186,2.0,270.1637723,14.03005702,-99999.0,'11111222,11111222,99999999' 
TABS,ioos:station:wmo:42043:1,2003-11-03T12:00:00Z,28.9818,-94.9186,2.0,271.9783133,13.32794058,-99999.0,'11111222,11111222,99999999' 
TABS,ioos:station:wmo:42043:1,2003-11-03T12:30:00Z,28.9818,-94.9186,2.0,264.6322094,10.79734227,-99999.0,'11111222,11111222,99999999' 
TABS,ioos:station:wmo:42043:1,2003-11-03T13:00:00Z,28.9818,-94.9186,2.0,276.2458735,10.01946605,-99999.0,'11111222,11111222,99999999' 
TABS,ioos:station:wmo:42043:1,2003-11-03T13:30:00Z,28.9818,-94.9186,2.0,268.7282134,7.661886191,-99999.0,'11133222,11111222,99999999' 
TABS,ioos:station:wmo:42043:1,2003-11-03T14:00:00Z,28.9818,-94.9186,2.0,278.9827152,9.223106852,-99999.0,'11133222,11111222,99999999' 
TABS,ioos:station:wmo:42043:1,2003-11-03T14:30:00Z,28.9818,-94.9186,2.0,270.7464158,7.680651014,-99999.0,'11133222,11111222,99999999' 
TABS,ioos:station:wmo:42043:1,2003-11-03T15:00:00Z,28.9818,-94.9186,2.0,285.9365054,8.486135752,-99999.0,'11133222,11111222,99999999' 
TABS,ioos:station:wmo:42043:1,2003-11-03T15:30:00Z,28.9818,-94.9186,2.0,282.713602,8.08829401,-99999.0,'11133222,11111222,99999999' 
TABS,ioos:station:wmo:42043:1,2003-11-03T16:00:00Z,28.9818,-94.9186,2.0,277.7340009,7.356915114,-99999.0,'11133222,11111222,99999999' 
TABS,ioos:station:wmo:42043:1,2003-11-03T16:30:00Z,28.9818,-94.9186,2.0,289.680688,10.18493986,-99999.0,'11111222,11111222,99999999' 
TABS,ioos:station:wmo:42043:1,2003-11-03T17:00:00Z,28.9818,-94.9186,2.0,280.2508888,8.485434579,-99999.0,'11133222,11111222,99999999' 
TABS,ioos:station:wmo:42043:1,2003-11-03T17:30:00Z,28.9818,-94.9186,2.0,274.25791,9.024904432,-99999.0,'11133222,11111222,99999999' 
TABS,ioos:station:wmo:42043:1,2003-11-03T18:00:00Z,28.9818,-94.9186,2.0,272.6440288,8.238768112,-99999.0,'11133222,11111222,99999999' 
TABS,ioos:station:wmo:42043:1,2003-11-03T18:30:00Z,28.9818,-94.9186,2.0,278.8008667,8.823882365,-99999.0,'11133222,11111222,99999999' 
TABS,ioos:station:wmo:42043:1,2003-11-03T19:00:00Z,28.9818,-94.9186,2.0,276.7619924,8.408483811,-99999.0,'11133222,11111222,99999999' 
TABS,ioos:station:wmo:42043:1,2003-11-03T19:30:00Z,28.9818,-94.9186,2.0,269.8368078,10.56004261,-99999.0,'11111222,11111222,99999999' 
TABS,ioos:station:wmo:42043:1,2003-11-03T20:00:00Z,28.9818,-94.9186,2.0,272.837825,10.30263073,-99999.0,'11111222,11111222,99999999' 
TABS,ioos:station:wmo:42043:1,2003-11-03T20:30:00Z,28.9818,-94.9186,2.0,278.6343475,11.25757523,-99999.0,'11111222,11111222,99999999' 
TABS,ioos:station:wmo:42043:1,2003-11-03T21:00:00Z,28.9818,-94.9186,2.0,280.4410147,9.436233359,-99999.0,'11133222,11111222,99999999' 
TABS,ioos:station:wmo:42043:1,2003-11-03T21:30:00Z,28.9818,-94.9186,2.0,280.4069665,10.07573819,-99999.0,'11111222,11111222,99999999' 
TABS,ioos:station:wmo:42043:1,2003-11-03T22:00:00Z,28.9818,-94.9186,2.0,283.7090344,8.05959056,-99999.0,'11133222,11111222,99999999' 
TABS,ioos:station:wmo:42043:1,2003-11-03T22:30:00Z,28.9818,-94.9186,2.0,295.2303718,8.445685289,-99999.0,'11133222,11111222,99999999' 
TABS,ioos:station:wmo:42043:1,2003-11-03T23:00:00Z,28.9818,-94.9186,2.0,319.1959556,3.672655715,-99999.0,'11133222,11111222,99999999' 
TABS,ioos:station:wmo:42043:1,2003-11-03T23:30:00Z,28.9818,-94.9186,2.0,327.6784308,4.413898504,-99999.0,'11133222,11111222,99999999' 
TABS,ioos:station:wmo:42043:1,2003-11-04T00:00:00Z,28.9818,-94.9186,2.0,314.0883057,4.886726921,-99999.0,'11133222,11111222,99999999' 
TABS,ioos:station:wmo:42043:1,2003-11-04T00:30:00Z,28.9818,-94.9186,2.0,325.0468723,3.64804057,-99999.0,'11133222,11111222,99999999' 
TABS,ioos:station:wmo:42043:1,2003-11-04T01:00:00Z,28.9818,-94.9186,2.0,345.5735312,5.338333073,-99999.0,'11133222,11111222,99999999' 
TABS,ioos:station:wmo:42043:1,2003-11-04T01:30:00Z,28.9818,-94.9186,2.0,344.5691946,4.284448623,-99999.0,'11133222,11111222,99999999' 
TABS,ioos:station:wmo:42043:1,2003-11-04T02:00:00Z,28.9818,-94.9186,2.0,356.774016,4.797603568,-99999.0,'11133222,11111222,99999999' 
TABS,ioos:station:wmo:42043:1,2003-11-04T02:30:00Z,28.9818,-94.9186,2.0,5.882642293,6.634937829,-99999.0,'11133222,11111222,99999999' 
TABS,ioos:station:wmo:42043:1,2003-11-04T03:00:00Z,28.9818,-94.9186,2.0,8.951748935,8.48332482,-99999.0,'11133222,11111222,99999999' 
TABS,ioos:station:wmo:42043:1,2003-11-04T03:30:00Z,28.9818,-94.9186,2.0,23.04074961,5.237833522,-99999.0,'11133222,11111222,99999999' 
TABS,ioos:station:wmo:42043:1,2003-11-04T04:00:00Z,28.9818,-94.9186,2.0,25.13466097,8.240242715,-99999.0,'11133222,11111222,99999999' 
TABS,ioos:station:wmo:42043:1,2003-11-04T04:30:00Z,28.9818,-94.9186,2.0,27.94519674,8.727668646,-99999.0,'11133222,11111222,99999999' 
TABS,ioos:station:wmo:42043:1,2003-11-04T05:00:00Z,28.9818,-94.9186,2.0,40.34676452,7.321475261,-99999.0,'11133222,11111222,99999999' 
TABS,ioos:station:wmo:42043:1,2003-11-04T05:30:00Z,28.9818,-94.9186,2.0,23.15057485,7.808796322,-99999.0,'11133222,11111222,99999999' 
TABS,ioos:station:wmo:42043:1,2003-11-04T06:00:00Z,28.9818,-94.9186,2.0,55.22818262,6.610431151,-99999.0,'11133222,11111222,99999999' 
TABS,ioos:station:wmo:42043:1,2003-11-04T06:30:00Z,28.9818,-94.9186,2.0,48.66528131,7.964169762,-99999.0,'11133222,11111222,99999999' 
TABS,ioos:station:wmo:42043:1,2003-11-04T07:00:00Z,28.9818,-94.9186,2.0,55.87097276,9.410765112,-99999.0,'11133222,11111222,99999999' 
TABS,ioos:station:wmo:42043:1,2003-11-04T07:30:00Z,28.9818,-94.9186,2.0,48.78766992,6.101516205,-99999.0,'11133222,11111222,99999999' 
TABS,ioos:station:wmo:42043:1,2003-11-04T08:00:00Z,28.9818,-94.9186,2.0,75.54473075,5.968961384,-99999.0,'11133222,11111222,99999999' 
TABS,ioos:station:wmo:42043:1,2003-11-04T08:30:00Z,28.9818,-94.9186,2.0,86.52859894,5.45,-99999.0,'11133222,11111222,99999999' 
TABS,ioos:station:wmo:42043:1,2003-11-04T09:00:00Z,28.9818,-94.9186,2.0,91.6586768,5.18217136,-99999.0,'11133222,11111222,99999999' 
TABS,ioos:station:wmo:42043:1,2003-11-04T09:30:00Z,28.9818,-94.9186,2.0,93.46168092,5.299669801,-99999.0,'11133222,11111222,99999999' 
TABS,ioos:station:wmo:42043:1,2003-11-04T10:00:00Z,28.9818,-94.9186,2.0,83.8695256,5.431058829,-99999.0,'11133222,11111222,99999999' 
TABS,ioos:station:wmo:42043:1,2003-11-04T10:30:00Z,28.9818,-94.9186,2.0,94.1795601,5.213866128,-99999.0,'11133222,11111222,99999999' 
TABS,ioos:station:wmo:42043:1,2003-11-04T11:00:00Z,28.9818,-94.9186,2.0,85.61530338,3.139187793,-99999.0,'11133222,11111222,99999999' 
TABS,ioos:station:wmo:42043:1,2003-11-04T11:30:00Z,28.9818,-94.9186,2.0,88.79213824,6.64147574,-99999.0,'11133222,11111222,99999999' 
TABS,ioos:station:wmo:42043:1,2003-11-04T12:00:00Z,28.9818,-94.9186,2.0,96.06431113,5.96337153,-99999.0,'11133222,11111222,99999999' 
TABS,ioos:station:wmo:42043:1,2003-11-04T12:30:00Z,28.9818,-94.9186,2.0,87.54144772,7.22665206,-99999.0,'11133222,11111222,99999999' 
TABS,ioos:station:wmo:42043:1,2003-11-04T13:00:00Z,28.9818,-94.9186,2.0,84.18349561,5.920481399,-99999.0,'11133222,11111222,99999999' 
TABS,ioos:station:wmo:42043:1,2003-11-04T13:30:00Z,28.9818,-94.9186,2.0,87.03907079,5.807753438,-99999.0,'11133222,11111222,99999999' 
TABS,ioos:station:wmo:42043:1,2003-11-04T14:00:00Z,28.9818,-94.9186,2.0,74.13582539,7.755385226,-99999.0,'11133222,11111222,99999999' 
TABS,ioos:station:wmo:42043:1,2003-11-04T14:30:00Z,28.9818,-94.9186,2.0,62.69011236,7.911877148,-99999.0,'11133222,11111222,99999999' 
TABS,ioos:station:wmo:42043:1,2003-11-04T15:00:00Z,28.9818,-94.9186,2.0,65.97814937,6.8535903,-99999.0,'11133222,11111222,99999999' 
TABS,ioos:station:wmo:42043:1,2003-11-04T15:30:00Z,28.9818,-94.9186,2.0,84.07623603,6.68570116,-99999.0,'11133222,11111222,99999999' 
TABS,ioos:station:wmo:42043:1,2003-11-04T16:00:00Z,28.9818,-94.9186,2.0,70.35863879,9.311809706,-99999.0,'11133222,11111222,99999999' 